Time,TemperatureF,DewpointF,PressureIn,WindDirection,WindDirectionDegrees,WindSpeedMPH,WindSpeedGustMPH,Humidity,HourlyPrecipIn,Conditions,Clouds,dailyrainin,SoftwareType,DateUTC
2013-01-16 00:03:00,28.0,22.0,-100.00,NNW,340,3.0,6.0,76,0.00,,,-99.99,,2013-01-16 05:03:00,
2013-01-16 00:12:00,28.0,22.0,-100.00,NNW,335,2.0,6.0,77,0.00,,,-99.99,,2013-01-16 05:12:00,
2013-01-16 00:22:00,28.0,22.0,-100.00,NW,325,2.0,3.0,78,0.00,,,-99.99,,2013-01-16 05:22:00,
2013-01-16 00:32:00,28.0,22.0,-100.00,NNW,335,2.0,4.0,77,0.00,,,-99.99,,2013-01-16 05:32:00,
2013-01-16 00:42:00,28.0,22.0,-100.00,NNW,340,2.0,4.0,76,0.00,,,-99.99,,2013-01-16 05:42:00,
2013-01-16 00:53:00,28.0,22.0,-100.00,North,0,3.0,5.0,77,0.00,,,-99.99,,2013-01-16 05:53:00,
2013-01-16 01:03:00,28.0,22.0,-100.00,North,0,2.0,4.0,76,0.00,,,-99.99,,2013-01-16 06:03:00,
2013-01-16 01:12:00,28.0,22.0,-100.00,North,0,2.0,4.0,76,0.00,,,-99.99,,2013-01-16 06:12:00,
2013-01-16 01:22:00,28.0,22.0,-100.00,NNW,340,1.0,3.0,77,0.00,,,-99.99,,2013-01-16 06:22:00,
2013-01-16 01:32:00,28.0,22.0,-100.00,NNW,335,1.0,5.0,78,0.00,,,-99.99,,2013-01-16 06:32:00,
2013-01-16 01:43:00,28.0,22.0,-100.00,NW,310,2.0,4.0,79,0.00,,,-99.99,,2013-01-16 06:43:00,
2013-01-16 01:52:00,28.0,23.0,-100.00,NNW,335,0.0,3.0,80,0.00,,,-99.99,,2013-01-16 06:52:00,
2013-01-16 02:02:00,28.0,23.0,-100.00,North,350,0.0,2.0,80,0.00,,,-99.99,,2013-01-16 07:02:00,
2013-01-16 02:12:00,28.0,23.0,-100.00,North,355,1.0,2.0,80,0.00,,,-99.99,,2013-01-16 07:12:00,
2013-01-16 02:22:00,28.0,23.0,-100.00,NNW,335,0.0,1.0,80,0.00,,,-99.99,,2013-01-16 07:22:00,
2013-01-16 02:33:00,28.0,23.0,-100.00,NNW,345,1.0,3.0,80,0.00,,,-99.99,,2013-01-16 07:33:00,
2013-01-16 02:42:00,28.0,23.0,-100.00,NNW,335,1.0,2.0,80,0.00,,,-99.99,,2013-01-16 07:42:00,
2013-01-16 02:52:00,28.0,23.0,-100.00,North,355,1.0,3.0,79,0.00,,,-99.99,,2013-01-16 07:52:00,
2013-01-16 03:02:00,28.0,23.0,-100.00,North,0,1.0,4.0,79,0.00,,,-99.99,,2013-01-16 08:02:00,
2013-01-16 03:12:00,28.0,23.0,-100.00,North,0,1.0,4.0,80,0.00,,,-99.99,,2013-01-16 08:12:00,
2013-01-16 03:22:00,29.0,24.0,-100.00,NNE,25,2.0,4.0,81,0.00,,,-99.99,,2013-01-16 08:22:00,
2013-01-16 03:32:00,29.0,23.0,-100.00,North,0,0.0,3.0,80,0.00,,,-99.99,,2013-01-16 08:32:00,
2013-01-16 03:42:00,29.0,23.0,-100.00,NNE,15,1.0,3.0,80,0.00,,,-99.99,,2013-01-16 08:42:00,
2013-01-16 03:52:00,28.0,24.0,-100.00,NNE,15,0.0,4.0,81,0.00,,,-99.99,,2013-01-16 08:52:00,
2013-01-16 04:02:00,29.0,24.0,-100.00,North,355,1.0,3.0,81,0.00,,,-99.99,,2013-01-16 09:02:00,
2013-01-16 04:12:00,29.0,24.0,-100.00,North,350,0.0,3.0,81,0.00,,,-99.99,,2013-01-16 09:12:00,
2013-01-16 04:22:00,29.0,24.0,-100.00,North,355,1.0,2.0,82,0.00,,,-99.99,,2013-01-16 09:22:00,
2013-01-16 04:32:00,29.0,24.0,-100.00,NNW,345,0.0,2.0,81,0.00,,,-99.99,,2013-01-16 09:32:00,
2013-01-16 04:42:00,29.0,24.0,-100.00,NW,325,0.0,1.0,81,0.00,,,-99.99,,2013-01-16 09:42:00,
2013-01-16 04:52:00,29.0,24.0,-100.00,NW,315,0.0,1.0,81,0.00,,,-99.99,,2013-01-16 09:52:00,
2013-01-16 05:02:00,29.0,24.0,-100.00,NW,315,0.0,0.0,81,0.00,,,-99.99,,2013-01-16 10:02:00,
2013-01-16 05:12:00,29.0,24.0,-100.00,NNE,15,0.0,0.0,81,0.00,,,-99.99,,2013-01-16 10:12:00,
2013-01-16 05:22:00,29.0,24.0,-100.00,WNW,285,0.0,0.0,81,0.00,,,-99.99,,2013-01-16 10:22:00,
2013-01-16 05:32:00,29.0,24.0,-100.00,WSW,250,0.0,0.0,82,0.00,,,-99.99,,2013-01-16 10:32:00,
2013-01-16 05:42:00,28.0,24.0,-100.00,NW,310,0.0,1.0,83,0.00,,,-99.99,,2013-01-16 10:42:00,
2013-01-16 05:52:00,28.0,24.0,-100.00,WNW,285,1.0,3.0,84,0.00,,,-99.99,,2013-01-16 10:52:00,
2013-01-16 06:02:00,27.0,24.0,-100.00,WNW,295,1.0,3.0,85,0.00,,,-99.99,,2013-01-16 11:02:00,
2013-01-16 06:12:00,27.0,24.0,-100.00,WNW,300,0.0,1.0,86,0.00,,,-99.99,,2013-01-16 11:12:00,
2013-01-16 06:23:00,27.0,24.0,-100.00,West,280,0.0,1.0,86,0.00,,,-99.99,,2013-01-16 11:23:00,
2013-01-16 06:33:00,27.0,24.0,-100.00,WNW,290,0.0,0.0,86,0.00,,,-99.99,,2013-01-16 11:33:00,
2013-01-16 06:43:00,27.0,24.0,-100.00,WSW,245,1.0,2.0,86,0.00,,,-99.99,,2013-01-16 11:43:00,
2013-01-16 06:52:00,27.0,24.0,-100.00,SW,230,0.0,2.0,86,0.00,,,-99.99,,2013-01-16 11:52:00,
2013-01-16 07:03:00,27.0,24.0,-100.00,SW,235,0.0,2.0,86,0.00,,,-99.99,,2013-01-16 12:03:00,
2013-01-16 07:13:00,27.0,24.0,-100.00,SW,230,0.0,2.0,86,0.00,,,-99.99,,2013-01-16 12:13:00,
2013-01-16 07:22:00,27.0,24.0,-100.00,SW,215,1.0,3.0,86,0.00,,,-99.99,,2013-01-16 12:22:00,
2013-01-16 07:33:00,27.0,24.0,-100.00,SW,215,0.0,3.0,86,0.00,,,-99.99,,2013-01-16 12:33:00,
2013-01-16 07:43:00,27.0,24.0,-100.00,SW,215,0.0,3.0,86,0.00,,,-99.99,,2013-01-16 12:43:00,
2013-01-16 07:53:00,27.0,24.0,-100.00,South,185,1.0,4.0,86,0.00,,,-99.99,,2013-01-16 12:53:00,
2013-01-16 08:03:00,27.0,24.0,-100.00,SW,230,1.0,2.0,86,0.00,,,-99.99,,2013-01-16 13:03:00,
2013-01-16 08:12:00,27.0,24.0,-100.00,SE,135,1.0,3.0,86,0.00,,,-99.99,,2013-01-16 13:12:00,
2013-01-16 08:23:00,27.0,24.0,-100.00,ESE,115,1.0,3.0,85,0.00,,,-99.99,,2013-01-16 13:23:00,
2013-01-16 08:33:00,27.0,24.0,-100.00,SSW,195,1.0,6.0,85,0.00,,,-99.99,,2013-01-16 13:33:00,
2013-01-16 08:43:00,27.0,23.0,-100.00,SSE,165,1.0,6.0,86,0.00,,,-99.99,,2013-01-16 13:43:00,
2013-01-16 08:52:00,27.0,23.0,-100.00,South,190,2.0,4.0,86,0.00,,,-99.99,,2013-01-16 13:52:00,
2013-01-16 09:03:00,27.0,24.0,-100.00,ENE,60,0.0,4.0,86,0.00,,,-99.99,,2013-01-16 14:03:00,
2013-01-16 09:12:00,27.0,24.0,-100.00,SE,130,1.0,3.0,86,0.00,,,-99.99,,2013-01-16 14:12:00,
2013-01-16 09:23:00,27.0,24.0,-100.00,South,185,1.0,4.0,85,0.00,,,-99.99,,2013-01-16 14:23:00,
2013-01-16 09:33:00,28.0,24.0,-100.00,SSE,165,1.0,4.0,85,0.00,,,-99.99,,2013-01-16 14:33:00,
2013-01-16 09:43:00,28.0,24.0,-100.00,SSE,150,1.0,6.0,85,0.00,,,-99.99,,2013-01-16 14:43:00,
2013-01-16 09:53:00,28.0,24.0,-100.00,SSE,160,2.0,7.0,84,0.00,,,-99.99,,2013-01-16 14:53:00,
2013-01-16 10:03:00,28.0,24.0,-100.00,SSE,150,2.0,6.0,83,0.00,,,-99.99,,2013-01-16 15:03:00,
2013-01-16 10:12:00,29.0,24.0,-100.00,SE,145,2.0,6.0,82,0.00,,,-99.99,,2013-01-16 15:12:00,
2013-01-16 10:23:00,29.0,24.0,-100.00,South,175,3.0,7.0,82,0.00,,,-99.99,,2013-01-16 15:23:00,
2013-01-16 10:33:00,29.0,24.0,-100.00,SSE,160,2.0,7.0,82,0.00,,,-99.99,,2013-01-16 15:33:00,
2013-01-16 10:43:00,29.0,24.0,-100.00,South,190,5.0,7.0,81,0.00,,,-99.99,,2013-01-16 15:43:00,
2013-01-16 10:52:00,30.0,24.0,-100.00,South,170,6.0,11.0,80,0.00,,,-99.99,,2013-01-16 15:52:00,
2013-01-16 11:04:00,30.0,24.0,-100.00,South,185,7.0,14.0,79,0.00,,,-99.99,,2013-01-16 16:04:00,
2013-01-16 11:12:00,31.0,24.0,-100.00,South,180,6.0,16.0,76,0.00,,,-99.99,,2013-01-16 16:12:00,
2013-01-16 11:22:00,31.0,25.0,-100.00,SSE,160,4.0,12.0,75,0.00,,,-99.99,,2013-01-16 16:22:00,
2013-01-16 11:33:00,31.0,24.0,-100.00,South,190,7.0,16.0,75,0.00,,,-99.99,,2013-01-16 16:33:00,
2013-01-16 11:43:00,31.0,24.0,-100.00,South,185,7.0,13.0,74,0.00,,,-99.99,,2013-01-16 16:43:00,
2013-01-16 11:52:00,32.0,24.0,-100.00,SSE,165,4.0,12.0,73,0.00,,,-99.99,,2013-01-16 16:52:00,
2013-01-16 12:03:00,32.0,24.0,-100.00,South,180,6.0,13.0,73,0.00,,,-99.99,,2013-01-16 17:03:00,
2013-01-16 12:12:00,32.0,24.0,-100.00,SSE,150,6.0,14.0,71,0.00,,,-99.99,,2013-01-16 17:12:00,
2013-01-16 12:23:00,33.0,24.0,-100.00,South,175,4.0,14.0,71,0.00,,,-99.99,,2013-01-16 17:23:00,
2013-01-16 12:33:00,33.0,24.0,-100.00,South,185,5.0,12.0,67,0.00,,,-99.99,,2013-01-16 17:33:00,
2013-01-16 12:44:00,33.0,23.0,-100.00,SSE,160,7.0,12.0,67,0.00,,,-99.99,,2013-01-16 17:44:00,
2013-01-16 12:53:00,33.0,24.0,-100.00,South,190,6.0,12.0,68,0.00,,,-99.99,,2013-01-16 17:53:00,
2013-01-16 13:03:00,34.0,24.0,-100.00,South,190,5.0,12.0,66,0.00,,,-99.99,,2013-01-16 18:03:00,
2013-01-16 13:13:00,33.0,23.0,-100.00,South,185,7.0,14.0,65,0.00,,,-99.99,,2013-01-16 18:13:00,
2013-01-16 13:23:00,35.0,24.0,-100.00,SSE,150,5.0,8.0,66,0.00,,,-99.99,,2013-01-16 18:23:00,
2013-01-16 13:33:00,34.0,23.0,-100.00,SSE,160,6.0,12.0,63,0.00,,,-99.99,,2013-01-16 18:33:00,
2013-01-16 13:43:00,35.0,24.0,-100.00,South,180,6.0,11.0,63,0.00,,,-99.99,,2013-01-16 18:43:00,
2013-01-16 13:53:00,35.0,23.0,-100.00,South,170,4.0,12.0,60,0.00,,,-99.99,,2013-01-16 18:53:00,
2013-01-16 14:03:00,35.0,22.0,-100.00,SE,140,6.0,11.0,58,0.00,,,-99.99,,2013-01-16 19:03:00,
2013-01-16 14:13:00,35.0,22.0,-100.00,SE,140,6.0,11.0,58,0.00,,,-99.99,,2013-01-16 19:13:00,
2013-01-16 14:23:00,35.0,21.0,-100.00,South,175,6.0,13.0,56,0.00,,,-99.99,,2013-01-16 19:23:00,
2013-01-16 14:33:00,35.0,21.0,-100.00,SSE,150,6.0,12.0,57,0.00,,,-99.99,,2013-01-16 19:33:00,
2013-01-16 14:43:00,36.0,20.0,-100.00,SSE,160,4.0,10.0,53,0.00,,,-99.99,,2013-01-16 19:43:00,
2013-01-16 14:53:00,35.0,20.0,-100.00,SSE,165,6.0,10.0,54,0.00,,,-99.99,,2013-01-16 19:53:00,
2013-01-16 15:03:00,35.0,20.0,-100.00,SSE,165,6.0,12.0,54,0.00,,,-99.99,,2013-01-16 20:03:00,
2013-01-16 15:12:00,35.0,20.0,-100.00,SE,140,6.0,10.0,54,0.00,,,-99.99,,2013-01-16 20:12:00,
2013-01-16 15:23:00,35.0,20.0,-100.00,SSE,160,6.0,9.0,53,0.00,,,-99.99,,2013-01-16 20:23:00,
2013-01-16 15:33:00,35.0,22.0,-100.00,East,95,2.0,9.0,56,0.00,,,-99.99,,2013-01-16 20:33:00,
2013-01-16 15:43:00,35.0,21.0,-100.00,SSE,150,4.0,9.0,57,0.00,,,-99.99,,2013-01-16 20:43:00,
2013-01-16 15:53:00,34.0,23.0,-100.00,SE,145,6.0,10.0,61,0.00,,,-99.99,,2013-01-16 20:53:00,
2013-01-16 16:03:00,35.0,23.0,-100.00,SE,140,1.0,11.0,62,0.00,,,-99.99,,2013-01-16 21:03:00,
2013-01-16 16:12:00,35.0,23.0,-100.00,SE,140,1.0,11.0,62,0.00,,,-99.99,,2013-01-16 21:12:00,
2013-01-16 16:22:00,35.0,22.0,-100.00,SSE,165,4.0,9.0,59,0.00,,,-99.99,,2013-01-16 21:22:00,
2013-01-16 16:33:00,34.0,21.0,-100.00,SSE,155,2.0,9.0,58,0.00,,,-99.99,,2013-01-16 21:33:00,
2013-01-16 16:43:00,34.0,21.0,-100.00,SSE,150,6.0,11.0,58,0.00,,,-99.99,,2013-01-16 21:43:00,
2013-01-16 16:52:00,34.0,20.0,-100.00,SSE,150,4.0,11.0,57,0.00,,,-99.99,,2013-01-16 21:52:00,
2013-01-16 17:03:00,34.0,20.0,-100.00,SSE,150,4.0,11.0,57,0.00,,,-99.99,,2013-01-16 22:03:00,
2013-01-16 17:12:00,34.0,20.0,-100.00,SSE,150,4.0,11.0,57,0.00,,,-99.99,,2013-01-16 22:12:00,
2013-01-16 17:23:00,33.0,20.0,-100.00,SE,145,3.0,10.0,58,0.00,,,-99.99,,2013-01-16 22:23:00,
2013-01-16 17:33:00,33.0,21.0,-100.00,South,170,3.0,10.0,60,0.00,,,-99.99,,2013-01-16 22:33:00,
2013-01-16 17:43:00,33.0,21.0,-100.00,SSE,155,5.0,12.0,60,0.00,,,-99.99,,2013-01-16 22:43:00,
2013-01-16 17:52:00,33.0,21.0,-100.00,SSE,150,4.0,9.0,60,0.00,,,-99.99,,2013-01-16 22:52:00,
2013-01-16 18:03:00,33.0,21.0,-100.00,SE,135,3.0,7.0,61,0.00,,,-99.99,,2013-01-16 23:03:00,
2013-01-16 18:12:00,33.0,22.0,-100.00,SSE,160,4.0,9.0,63,0.00,,,-99.99,,2013-01-16 23:12:00,
2013-01-16 18:23:00,33.0,22.0,-100.00,SSE,150,5.0,9.0,64,0.00,,,-99.99,,2013-01-16 23:23:00,
2013-01-16 18:33:00,33.0,22.0,-100.00,SSE,160,6.0,11.0,64,0.00,,,-99.99,,2013-01-16 23:33:00,
2013-01-16 18:43:00,33.0,22.0,-100.00,SE,145,7.0,14.0,63,0.00,,,-99.99,,2013-01-16 23:43:00,
2013-01-16 18:52:00,33.0,22.0,-100.00,SE,145,5.0,13.0,63,0.00,,,-99.99,,2013-01-16 23:52:00,
2013-01-16 19:02:00,32.0,22.0,-100.00,SSE,155,6.0,12.0,64,0.00,,,-99.99,,2013-01-17 00:02:00,
2013-01-16 19:12:00,32.0,22.0,-100.00,SE,145,4.0,14.0,64,0.00,,,-99.99,,2013-01-17 00:12:00,
2013-01-16 19:22:00,32.0,22.0,-100.00,SE,140,6.0,9.0,64,0.00,,,-99.99,,2013-01-17 00:22:00,
2013-01-16 19:32:00,32.0,22.0,-100.00,SE,145,6.0,11.0,64,0.00,,,-99.99,,2013-01-17 00:32:00,
2013-01-16 19:42:00,33.0,21.0,-100.00,SSE,165,7.0,12.0,62,0.00,,,-99.99,,2013-01-17 00:42:00,
2013-01-16 19:52:00,33.0,21.0,-100.00,SSE,160,6.0,10.0,62,0.00,,,-99.99,,2013-01-17 00:52:00,
2013-01-16 20:02:00,33.0,21.0,-100.00,SSE,160,7.0,14.0,61,0.00,,,-99.99,,2013-01-17 01:02:00,
2013-01-16 20:12:00,33.0,21.0,-100.00,SSE,160,7.0,14.0,61,0.00,,,-99.99,,2013-01-17 01:12:00,
2013-01-16 20:22:00,33.0,21.0,-100.00,SSE,160,6.0,16.0,62,0.00,,,-99.99,,2013-01-17 01:22:00,
2013-01-16 20:33:00,33.0,22.0,-100.00,SSE,155,6.0,11.0,63,0.00,,,-99.99,,2013-01-17 01:33:00,
2013-01-16 20:42:00,33.0,22.0,-100.00,SSE,160,7.0,14.0,63,0.00,,,-99.99,,2013-01-17 01:42:00,
2013-01-16 20:52:00,33.0,22.0,-100.00,SSE,155,6.0,10.0,64,0.00,,,-99.99,,2013-01-17 01:52:00,
2013-01-16 21:02:00,33.0,22.0,-100.00,SSE,160,6.0,14.0,63,0.00,,,-99.99,,2013-01-17 02:02:00,
2013-01-16 21:12:00,33.0,22.0,-100.00,SSE,160,6.0,14.0,63,0.00,,,-99.99,,2013-01-17 02:12:00,
2013-01-16 21:22:00,33.0,21.0,-100.00,South,170,7.0,14.0,61,0.00,,,-99.99,,2013-01-17 02:22:00,
2013-01-16 21:32:00,33.0,21.0,-100.00,South,170,7.0,14.0,61,0.00,,,-99.99,,2013-01-17 02:32:00,
2013-01-16 21:43:00,33.0,21.0,-100.00,South,170,7.0,14.0,61,0.00,,,-99.99,,2013-01-17 02:43:00,
2013-01-16 21:52:00,33.0,21.0,-100.00,South,170,7.0,14.0,61,0.00,,,-99.99,,2013-01-17 02:52:00,
2013-01-16 22:03:00,33.0,21.0,-100.00,South,170,6.0,14.0,60,0.00,,,-99.99,,2013-01-17 03:03:00,
2013-01-16 22:12:00,33.0,21.0,-100.00,SSE,165,7.0,14.0,60,0.00,,,-99.99,,2013-01-17 03:12:00,
2013-01-16 22:22:00,33.0,21.0,-100.00,SSE,165,6.0,14.0,61,0.00,,,-99.99,,2013-01-17 03:22:00,
2013-01-16 22:33:00,33.0,21.0,-100.00,SSE,165,6.0,14.0,61,0.00,,,-99.99,,2013-01-17 03:33:00,
2013-01-16 22:43:00,33.0,22.0,-100.00,South,185,6.0,14.0,62,0.00,,,-99.99,,2013-01-17 03:43:00,
2013-01-16 22:52:00,33.0,21.0,-100.00,SSW,195,7.0,16.0,62,0.00,,,-99.99,,2013-01-17 03:52:00,
2013-01-16 23:02:00,33.0,22.0,-100.00,SSE,160,7.0,15.0,63,0.00,,,-99.99,,2013-01-17 04:02:00,
2013-01-16 23:12:00,33.0,22.0,-100.00,South,175,6.0,16.0,64,0.00,,,-99.99,,2013-01-17 04:12:00,
2013-01-16 23:22:00,33.0,22.0,-100.00,South,170,7.0,12.0,64,0.00,,,-99.99,,2013-01-17 04:22:00,
2013-01-16 23:33:00,33.0,22.0,-100.00,SSE,160,6.0,13.0,65,0.00,,,-99.99,,2013-01-17 04:33:00,
2013-01-16 23:42:00,32.0,22.0,-100.00,South,185,7.0,12.0,65,0.00,,,-99.99,,2013-01-17 04:42:00,
2013-01-16 23:52:00,33.0,22.0,-100.00,South,170,6.0,12.0,66,0.00,,,-99.99,,2013-01-17 04:52:00,